Meteo pe oră la Dzierzbice

Astăzi, 8 Martie, Luni

Timp Temperatura Precipitaţii Vânt Presiune Umiditate
00:00 -2°C° 0.3 mm 3 m/s 750 mmHg 87%
01:00 -4°C° 0 mm 3 m/s 751 mmHg 89%
02:00 -4°C° 0 mm 3 m/s 751 mmHg 88%
03:00 -4°C° 0 mm 2 m/s 751 mmHg 88%
04:00 -5°C° 0 mm 2 m/s 751 mmHg 88%
05:00 -5°C° 0 mm 2 m/s 751 mmHg 84%
06:00 -4°C° 0 mm 2 m/s 751 mmHg 80%
07:00 -4°C° 0 mm 2 m/s 752 mmHg 76%
08:00 -4°C° 0 mm 3 m/s 752 mmHg 70%
09:00 -1°C° 0 mm 3 m/s 753 mmHg 64%
10:00 -1°C° 0 mm 4 m/s 753 mmHg 59%
11:00 0°C° 0 mm 4 m/s 753 mmHg 56%
12:00 0°C° 0 mm 4 m/s 754 mmHg 54%
13:00 +1°C° 0 mm 4 m/s 754 mmHg 52%
14:00 0°C° 0 mm 4 m/s 754 mmHg 53%
15:00 0°C° 0 mm 4 m/s 754 mmHg 54%
16:00 0°C° 0 mm 4 m/s 754 mmHg 56%
17:00 0°C° 0 mm 3 m/s 754 mmHg 62%
18:00 -1°C° 0 mm 3 m/s 754 mmHg 68%
19:00 -3°C° 0 mm 2 m/s 755 mmHg 74%
20:00 -3°C° 0 mm 2 m/s 755 mmHg 77%
21:00 -3°C° 0 mm 2 m/s 755 mmHg 79%
22:00 -4°C° 0 mm 2 m/s 755 mmHg 82%
23:00 -2°C° 0 mm 1 m/s 756 mmHg 82%

Mâine, 9 Martie, Marţi

Timp Temperatura Precipitaţii Vânt Presiune Umiditate
00:00 -2°C° 0 mm 1 m/s 756 mmHg 82%
01:00 -2°C° 0 mm 1 m/s 756 mmHg 82%
02:00 -2°C° 0 mm 1 m/s 756 mmHg 81%
03:00 -2°C° 0 mm 1 m/s 755 mmHg 80%
04:00 -3°C° 0 mm 0 m/s 755 mmHg 79%
05:00 -2°C° 0 mm 1 m/s 755 mmHg 78%
06:00 -2°C° 0 mm 1 m/s 755 mmHg 76%
07:00 -1°C° 0 mm 1 m/s 756 mmHg 75%
08:00 -1°C° 0 mm 1 m/s 756 mmHg 68%
09:00 0°C° 0 mm 1 m/s 756 mmHg 62%
10:00 -1°C° 0 mm 2 m/s 756 mmHg 56%
11:00 +1°C° 0 mm 2 m/s 756 mmHg 53%
12:00 +1°C° 0 mm 2 m/s 755 mmHg 49%
13:00 +2°C° 0 mm 2 m/s 755 mmHg 46%
14:00 +2°C° 0 mm 2 m/s 755 mmHg 47%
15:00 +1°C° 0 mm 2 m/s 755 mmHg 47%
16:00 +1°C° 0 mm 2 m/s 754 mmHg 48%
17:00 -1°C° 0 mm 2 m/s 754 mmHg 53%
18:00 -2°C° 0 mm 2 m/s 754 mmHg 59%
19:00 -3°C° 0 mm 2 m/s 754 mmHg 64%
20:00 -4°C° 0 mm 3 m/s 755 mmHg 64%
21:00 -4°C° 0 mm 3 m/s 755 mmHg 64%
22:00 -5°C° 0 mm 3 m/s 755 mmHg 65%
23:00 -4°C° 0 mm 2 m/s 755 mmHg 65%

Poimâine, 10 Martie, Miercuri

Timp Temperatura Precipitaţii Vânt Presiune Umiditate
00:00 -4°C° 0 mm 2 m/s 755 mmHg 65%
01:00 -4°C° 0 mm 2 m/s 754 mmHg 65%
02:00 -4°C° 0 mm 2 m/s 754 mmHg 64%
03:00 -2°C° 0 mm 1 m/s 754 mmHg 64%
04:00 -2°C° 0 mm 1 m/s 754 mmHg 64%
05:00 -2°C° 0 mm 1 m/s 755 mmHg 63%
06:00 -1°C° 0 mm 1 m/s 755 mmHg 62%
07:00 -1°C° 0 mm 1 m/s 755 mmHg 61%
08:00 0°C° 0 mm 1 m/s 755 mmHg 57%
09:00 -1°C° 0 mm 2 m/s 755 mmHg 52%
10:00 +1°C° 0 mm 2 m/s 755 mmHg 48%
11:00 +2°C° 0 mm 2 m/s 755 mmHg 45%
12:00 +3°C° 0 mm 1 m/s 756 mmHg 43%
13:00 +4°C° 0 mm 1 m/s 756 mmHg 40%
14:00 +4°C° 0 mm 1 m/s 755 mmHg 41%
15:00 +4°C° 0 mm 1 m/s 755 mmHg 42%
16:00 +4°C° 0 mm 1 m/s 755 mmHg 42%
17:00 +2°C° 0 mm 1 m/s 755 mmHg 47%
18:00 -1°C° 0 mm 2 m/s 755 mmHg 52%
19:00 -2°C° 0 mm 2 m/s 756 mmHg 57%
20:00 -4°C° 0 mm 3 m/s 756 mmHg 59%
21:00 -4°C° 0 mm 3 m/s 756 mmHg 60%
22:00 -4°C° 0 mm 3 m/s 756 mmHg 61%
23:00 -4°C° 0 mm 3 m/s 756 mmHg 61%

11 Martie, Joi

Timp Temperatura Precipitaţii Vânt Presiune Umiditate
00:00 -4°C° 0 mm 3 m/s 755 mmHg 61%
01:00 -4°C° 0 mm 3 m/s 755 mmHg 61%
02:00 -4°C° 0 mm 4 m/s 754 mmHg 61%
03:00 -4°C° 0 mm 4 m/s 753 mmHg 60%
04:00 -4°C° 0 mm 4 m/s 753 mmHg 59%
05:00 -4°C° 0 mm 5 m/s 752 mmHg 57%
06:00 -4°C° 0 mm 6 m/s 752 mmHg 56%
07:00 -3°C° 0 mm 6 m/s 751 mmHg 54%
08:00 -2°C° 0 mm 7 m/s 751 mmHg 52%
09:00 -1°C° 0 mm 7 m/s 750 mmHg 50%
10:00 0°C° 0 mm 8 m/s 750 mmHg 49%
11:00 0°C° 0.2 mm 8 m/s 749 mmHg 60%
12:00 0°C° 0.2 mm 8 m/s 748 mmHg 72%
13:00 0°C° 0.2 mm 8 m/s 746 mmHg 84%
14:00 0°C° 0.5 mm 8 m/s 746 mmHg 86%
15:00 0°C° 0.5 mm 9 m/s 745 mmHg 89%
16:00 0°C° 0.5 mm 9 m/s 744 mmHg 92%
17:00 0°C° 1 mm 8 m/s 743 mmHg 91%
18:00 +1°C° 1 mm 8 m/s 742 mmHg 91%
19:00 +2°C° 1 mm 7 m/s 742 mmHg 90%
20:00 +2°C° 0.3 mm 8 m/s 742 mmHg 88%
21:00 +2°C° 0.3 mm 8 m/s 741 mmHg 87%
22:00 +3°C° 0.3 mm 9 m/s 741 mmHg 86%
23:00 +4°C° 0.1 mm 8 m/s 741 mmHg 88%

12 Martie, Vineri

Timp Temperatura Precipitaţii Vânt Presiune Umiditate
00:00 +3°C° 0.1 mm 7 m/s 741 mmHg 89%
01:00 +3°C° 0.1 mm 6 m/s 741 mmHg 90%
02:00 +3°C° 0 mm 6 m/s 742 mmHg 89%
03:00 +3°C° 0 mm 6 m/s 742 mmHg 89%
04:00 +3°C° 0 mm 6 m/s 742 mmHg 88%
05:00 +3°C° 0.2 mm 6 m/s 743 mmHg 87%
06:00 +2°C° 0.2 mm 7 m/s 743 mmHg 87%
07:00 +2°C° 0.2 mm 7 m/s 743 mmHg 87%
08:00 +3°C° 0 mm 7 m/s 744 mmHg 82%
09:00 +4°C° 0 mm 8 m/s 744 mmHg 77%
10:00 +3°C° 0 mm 9 m/s 745 mmHg 72%
11:00 +5°C° 0.1 mm 8 m/s 745 mmHg 69%
12:00 +5°C° 0.1 mm 8 m/s 745 mmHg 67%
13:00 +5°C° 0.1 mm 7 m/s 745 mmHg 64%
14:00 +5°C° 0.1 mm 7 m/s 745 mmHg 63%
15:00 +5°C° 0.1 mm 7 m/s 745 mmHg 62%
16:00 +7°C° 0.1 mm 6 m/s 746 mmHg 60%
17:00 +4°C° 0 mm 6 m/s 746 mmHg 65%
18:00 +3°C° 0 mm 5 m/s 746 mmHg 71%
19:00 +3°C° 0 mm 4 m/s 746 mmHg 76%
20:00 +3°C° 0 mm 4 m/s 746 mmHg 76%
21:00 +3°C° 0 mm 4 m/s 746 mmHg 77%
22:00 +1°C° 0 mm 4 m/s 747 mmHg 78%
23:00 +1°C° 0 mm 4 m/s 746 mmHg 78%

13 Martie, Sâmbătă

Timp Temperatura Precipitaţii Vânt Presiune Umiditate
00:00 +1°C° 0 mm 4 m/s 746 mmHg 79%
01:00 +1°C° 0 mm 5 m/s 746 mmHg 79%
02:00 +1°C° 0 mm 5 m/s 745 mmHg 80%
03:00 0°C° 0 mm 5 m/s 745 mmHg 81%
04:00 0°C° 0 mm 5 m/s 745 mmHg 82%
05:00 +1°C° 0 mm 5 m/s 745 mmHg 82%
06:00 +1°C° 0 mm 5 m/s 744 mmHg 81%
07:00 +1°C° 0 mm 6 m/s 744 mmHg 81%
08:00 +2°C° 0 mm 6 m/s 744 mmHg 78%
09:00 +4°C° 0 mm 6 m/s 744 mmHg 75%
10:00 +5°C° 0 mm 6 m/s 744 mmHg 72%
11:00 +5°C° 0.1 mm 6 m/s 744 mmHg 73%
12:00 +5°C° 0.1 mm 6 m/s 744 mmHg 73%
13:00 +5°C° 0.1 mm 6 m/s 744 mmHg 74%
14:00 +5°C° 0.3 mm 6 m/s 744 mmHg 75%
15:00 +6°C° 0.3 mm 5 m/s 744 mmHg 77%
16:00 +5°C° 0.3 mm 5 m/s 743 mmHg 79%
17:00 +5°C° 0.2 mm 5 m/s 744 mmHg 81%
18:00 +3°C° 0.2 mm 5 m/s 744 mmHg 83%
19:00 +4°C° 0.2 mm 4 m/s 744 mmHg 84%
20:00 +3°C° 0.1 mm 4 m/s 744 mmHg 85%
21:00 +3°C° 0.1 mm 4 m/s 745 mmHg 85%
22:00 +1°C° 0.1 mm 4 m/s 745 mmHg 86%
23:00 +1°C° 0 mm 4 m/s 745 mmHg 86%
Arată mai mult

Formular de consimțământ

Meteoprog și furnizorii noștri de servicii pot stoca și accesa date personale, precum cookies, identificatori de dispozitiv sau alte tehnologii similare pe dispozitivul dumneavoastră și procesa astfel de date pentru a personaliza conținutul și reclamele, dar și pentru a oferi caracteristici de social media și pentru a analiza traficul.

  • Stocarea și/sau accesarea informațiilor pe dispozitivul dumneavoastră

    Cookies, identificatori de dispozitiv sau alte informații pot fi stocate sau accesate pe dispozitiv în scopurile indicate mai sus.

  • Reclame și conținut personalizat, evaluarea reclamelor și a conținutului, informații despre audiențe și dezvoltarea produselor

    Reclamele și conținutul pot fi personalizate pe baza unui profil. Pot fi adăugate date suplimentare pentru a personaliza mai bine reclamele și conținutul. Performanța reclamelor și conținutului poate fi măsurată. Pot fi obținute informații despre utilizatorii care au văzut reclamele și conținutul. Aceste date pot fi utilizate pentru a dezvolta sau îmbunătăți experiența utilizatorilor, sistemele și software-ul.

Dând clic pe ‘Sunt de acord’, permiteți utilizarea cookie-urilor menționate, a identificatorilor de dispozitiv, balizelor web sau altor tehnologii similare. Setările pot fi modificate din browser-ul dispozitivului dumneavoastră.

În anumite scopuri, interesele legitime pot prima asupra consimțământului. Puteți citi mai multe informații în acest sens în Politica privind Confidențialitatea Datelor și Cookie.